User: anonymous   Login
Location: Les Thiberg�res
(47.8554°N, 1.0978°W)
Time: 11:53:14
(UTC+00:00)
Language:

STARLINK-1171 - Orbit

View from above orbital plane
View from above orbital plane
View from above satellite
View from above satellite

Ground track
Ground track

The orbit data is extracted from the following two-line orbital elements,

1 45062C 20006U   21167.13435175  .00003150  00000-0  21104-3 0  1678
2 45062  53.0529 121.9203 0001513  61.0383 247.2114 15.06401478    10
Epoch (UTC): 16 June 2021 03:13:27
Eccentricity: 0.0001513
inclination: 53.0529°
perigee height: 546 km
apogee height: 548 km
right ascension of ascending node: 121.9203°
argument of perigee: 61.0383°
revolutions per day: 15.06401478
mean anomaly at epoch: 247.2114°
orbit number at epoch: 1

The dashed part of the orbit path shows where the satellite is in the earth's shadow,  

DLR